Location: Oshawa
(43.9000°N, 78.8670°W)
Time: 01:57:15
(UTC-04:00)

S-56A Canister/Altair - All Passes

Search period start: 23 July 2014 00:00
Search period end: 02 August 2014 00:00
Orbit: 633 x 2503 km, 38.9° (Epoch: 21 July)

Date Brightness Start Highest point End Pass type
(mag) Time Alt. Az. Time Alt. Az. Time Alt. Az.
23 Jul - 01:01:12 10° SSW 01:07:48 25° SSE 01:12:44 10° ESE visible
23 Jul - 03:05:00 10° WSW 03:11:31 46° S 03:16:16 10° E visible
23 Jul - 05:09:48 10° W 05:14:54 44° S 05:19:09 10° ESE visible
23 Jul - 07:14:45 10° WSW 07:17:49 18° SSW 07:20:51 10° SSE daylight
24 Jul - 00:28:38 10° SSW 00:35:33 24° SSE 00:40:44 10° ESE visible
24 Jul - 02:32:20 10° WSW 02:39:24 45° S 02:44:25 10° E visible
24 Jul - 04:37:20 10° W 04:42:54 47° S 04:47:17 10° ESE visible
24 Jul - 06:42:21 10° WSW 06:45:51 21° SSW 06:49:10 10° SSE daylight
24 Jul - 23:56:04 10° SSW 00:03:16 24° SSE 00:08:42 10° ESE visible
25 Jul - 01:59:36 10° WSW 02:07:15 45° SSE 02:12:33 10° E visible
25 Jul - 04:04:47 10° W 04:10:52 51° S 04:15:26 10° ESE visible
25 Jul - 06:09:55 10° W 06:13:53 24° SSW 06:17:29 10° SSE daylight
25 Jul - 23:23:31 10° SSW 23:30:56 23° SSE 23:36:36 10° ESE visible
26 Jul - 01:26:49 10° SW 01:35:03 44° SSE 01:40:40 10° E visible
26 Jul - 03:32:08 10° W 03:38:48 53° S 03:43:36 10° ESE visible
26 Jul - 05:37:26 10° W 05:41:56 28° SSW 05:45:46 10° SE daylight
26 Jul - 22:50:59 10° SSW 22:58:33 22° SSE 23:04:25 10° ESE visible
27 Jul - 00:53:58 10° SW 01:02:47 43° SSE 01:08:47 10° E visible
27 Jul - 02:59:24 10° WSW 03:06:41 55° S 03:11:46 10° ESE visible
27 Jul - 05:04:53 10° W 05:09:58 32° SSW 05:14:04 10° SE visible
27 Jul - 22:18:30 10° S 22:26:08 20° SSE 22:32:10 10° ESE visible
28 Jul - 00:21:05 10° SW 00:30:29 42° SSE 00:36:52 10° E visible
28 Jul - 02:26:34 10° WSW 02:34:32 57° S 02:39:57 10° ESE visible
28 Jul - 04:32:16 10° W 04:37:58 37° SSW 04:42:21 10° SE visible
28 Jul - 21:46:05 10° S 21:53:40 19° SE 21:59:48 10° ESE visible
28 Jul - 23:48:11 10° SW 23:58:07 41° SSE 00:04:55 10° E visible
29 Jul - 01:53:40 10° WSW 02:02:20 58° S 02:08:06 10° E visible
29 Jul - 03:59:35 10° W 04:05:56 42° SSW 04:10:37 10° SE visible
29 Jul - 06:06:26 10° WSW 06:08:32 12° SW 06:10:29 10° SSW daylight
29 Jul - 21:13:47 10° S 21:21:10 18° SE 21:27:18 10° ESE visible
29 Jul - 23:15:16 10° SW 23:25:41 40° SSE 23:32:55 10° E visible
30 Jul - 01:20:42 10° WSW 01:30:04 58° S 01:36:15 10° E visible
30 Jul - 03:26:49 10° W 03:33:52 47° SSW 03:38:52 10° ESE visible
30 Jul - 05:33:19 10° WSW 05:36:35 16° SW 05:39:28 10° S daylight
30 Jul - 20:41:37 10° S 20:48:38 17° SE 20:54:37 10° ESE daylight
30 Jul - 22:42:21 10° SW 22:53:13 38° SSE 23:00:52 10° E visible
31 Jul - 00:47:39 10° WSW 00:57:45 59° S 01:04:22 10° E visible
31 Jul - 02:53:57 10° W 03:01:46 52° SSW 03:07:06 10° ESE visible
31 Jul - 05:00:22 10° W 05:04:38 20° SW 05:08:11 10° S visible
31 Jul - 20:09:40 10° SSE 20:16:05 15° SE 20:21:43 10° ESE daylight
31 Jul - 22:09:28 10° SSW 22:20:40 37° SSE 22:28:45 10° E visible
01 Aug - 00:14:34 10° WSW 00:25:22 58° S 00:32:27 10° E visible
01 Aug - 02:21:01 10° W 02:29:35 56° SSW 02:35:18 10° ESE visible
01 Aug - 04:27:28 10° W 04:32:40 24° SW 04:36:46 10° SSE visible
01 Aug - 19:38:01 10° SSE 19:43:31 13° SE 19:48:30 10° ESE daylight
01 Aug - 21:36:38 10° SSW 21:48:05 35° SSE 21:56:34 10° E visible
01 Aug - 23:41:28 10° WSW 23:52:55 58° S 00:00:00 13° E visible
